星链-5852 (STARLINK-5852 )

导读

STARLINK-5852是美国太空探索技术公司SpaceX星链卫星星座的其中一颗卫星,于2023年3月17日发射入轨,属于星链星座低轨组网部署的批次卫星之一,主要服务于星链全球卫星互联网项目,为全球范围提供高速低延迟的宽带网络服务,完善星座的全球覆盖能力与服务容量,推动卫星互联网的全球部署进程。

基本信息
目录编号:
55933
目录名称:
STARLINK-5852
国际标识:
2023-037V
轨道中心:
EARTH
卫星名称:
星链-5852
卫星全名:
星链-5852 (STARLINK-5852 )
卫星状态:
在轨 (已飞行1268 天)
发射日期:
2023-03-17 UTC
国别 :
美国 (US)
星等 :
--
轨道信息
数据来源 国际轨道数据 AOE轨道数据
星历时间 2026-09-05T04:17:27+0800
11小时前
查看轨道信息
2026-09-01T00:00:00+0800
4天前
查看轨道信息
半长轴 6950.147km 6950.197km
偏心率 0.0003524 0.0003903
轨道倾角 70.000° 70.000°
近地点辐角 246.325° 250.573°
升交点赤经 192.836° 203.369°
平近点角 113.754° 255.580°
近地点 569.56km 569.347km
远地点 574.46km 574.773km
周期 96.106分钟 96.107分钟
每日圈数 14.983451 14.983289
详细信息
固有亮度:
5
最大亮度:
2.5
卫星平台:
Starlink v1.5
覆盖范围:
全球
运营商:
太空探索技术公司
运营商所在国:
美国
制造商(研发单位):
太空探索技术公司
制造商所在国:
美国
使用方式:
暂无
卫星简介
星链(Starlink)计划是由太空探索技术公司(SpaceX)提出的一个巨型低轨卫星互联网星座项目,计划在2019年至2024年间在太空搭建由约1.2万颗卫星组成的“星链”网络,其中1584颗将部署在地球上空550千米处的近地轨道,并从2020年开始工作。该卫星仍在工作。
2D轨道图
3D轨道图
轨道高度分析图
轨道倾角分析图
轨道综合分析图
查看轨道综合分析图
交会数据列表
事件ID 空间交会对象 最接近时刻(TCA) 交会距离 交会风险概率(CRP) 交会风险指数(CRI) 操作
CDM_260907-205005-593306-054921
2026-09-07T
20:50:45+0000
2.262 km
极远距离
2.090647E-6 低风险 0.41